Location: Catstown
(52.4386°N, 7.2633°W)
Time: 02:25:36
(UTC+00:00)

DMSP B5D1-3 - Pass Details

Date: 18 September 2020
Orbit: 767 x 781 km, 98.5° (Epoch: 19 October)

Event Time Altitude Azimuth Distance (km) Brightness Sun altitude
Rises 19:16:38 0° 17° (NNE) 3,251 7.7 -7.0°
Reaches altitude 10° 19:18:59 10° 20° (NNE) 2,320 6.9 -7.3°
Maximum altitude 19:24:04 66° 103° (ESE) 838 4.5 -8.1°
Drops below altitude 10° 19:29:07 10° 186° (S) 2,304 6.9 -8.8°
Sets 19:31:26 0° 189° (S) 3,227 7.7 -9.2°
